Location: ????? ????
(37.9717°N, 23.4051°E)
Time: 11:55:22
(UTC+00:00)

OAO 3 Rocket - Pass Details

Date: 18 April 2024
Orbit: 622 x 672 km, 35.0° (Epoch: 18 May)

Event Time Altitude Azimuth Distance (km) Brightness Sun altitude
Rises 18:20:23 0° 273° (W) 2,978 7.8 -14.6°
Reaches altitude 10° 18:22:58 10° 262° (W) 2,073 6.6 -15.0°
Maximum altitude 18:27:10 30° 202° (SSW) 1,188 4.4 -15.8°
Enters shadow 18:29:30 20° 158° (SSE) 1,518 4.6 -16.2°
